Flag for Canada Weather past 2 weeks in Moose Jaw, Saskatchewan, Canada

12 °F


Feels Like: 1 °F
Forecast: 9 / 32 °F
Wind: 8 mph from Southeast

Location: Regina Weather Station

Current Time: Dec 1, 2015 at 1:33:45 AM

Latest Report: Dec 1, 2015 at 1:00 AM

Visibility: 15 mi

Pressure: 30.01 "Hg (27.90 "Hg at 560m altitude)

Humidity: 85%

Dew point: 9 °F

Location of Moose JawLocation

Historic Weather in Moose Jaw — Graph


Moose Jaw temperature yesterday

Maximum temperature yesterday: 34 °F (at 3:00 PM)
Minimum temperature yesterday: 9 °F (at 6:00 AM)
Average temperature yesterday: 18 °F

Past Weeks' High & Low Weather Summary

High45 °F (Nov 17, 2:00 PM)100% (Nov 16, 5:00 AM)30.69 "Hg (Nov 16, 5:00 AM)
Low0 °F (Nov 26, 4:00 AM)37% (Nov 17, 2:00 PM)28.96 "Hg (Nov 18, 5:00 AM)
Average22 °F79%30.05 "Hg
* Reported Midnight between Nov 15 and Nov 16 — Midnight between Nov 30 and Dec 1, Moose Jaw, Weather by CustomWeather, © 2015

Note: Actual official high and low records may vary slightly from our data, if they occured in-between our weather recording intervals... More about our weather records


Moose Jaw weather history for previous 24 hours

Time TempWeatherWind HumidityBarometerVisibility
12:00 AM
Tue, Dec 1
12 °FClear.6 mph92%30.02 "Hg15 mi
11:00 PM
Mon, Nov 30
14 °FClear.7 mph85%30.02 "Hg15 mi
10:00 PM14 °FClear.7 mph92%30.02 "Hg15 mi
9:00 PM18 °FCold.9 mph86%30.03 "Hg15 mi
8:00 PM19 °FClear.7 mph93%30.03 "Hg15 mi
6:00 PM23 °FPassing clouds.9 mph86%30.06 "Hg15 mi
5:00 PM27 °FPassing clouds.9 mph74%30.05 "Hg15 mi
4:00 PM34 °FPassing clouds.8 mph60%30.05 "Hg15 mi
3:00 PM34 °FPassing clouds.9 mph56%30.05 "Hg15 mi
2:00 PM32 °FPassing clouds.7 mph60%30.06 "Hg15 mi
1:00 PM27 °FPassing clouds.12 mph74%30.09 "Hg15 mi
12:00 PM21 °FPassing clouds.7 mph80%30.11 "Hg15 mi
11:00 AM18 °FPassing clouds.10 mph79%30.14 "Hg15 mi
10:00 AM14 °FPassing clouds.8 mph85%30.15 "Hg15 mi
9:00 AM10 °FPassing clouds.8 mph85%30.15 "Hg15 mi
8:00 AM10 °FPassing clouds.9 mph85%30.15 "Hg15 mi
7:00 AM9 °FPassing clouds.6 mph92%30.13 "Hg15 mi
6:00 AM9 °FClear.8 mph85%30.13 "Hg15 mi
5:00 AM10 °FClear.6 mph85%30.13 "Hg15 mi
4:00 AM12 °FClear.10 mph85%30.13 "Hg15 mi
3:00 AM12 °FClear.8 mph85%30.14 "Hg15 mi
2:00 AM12 °FClear.8 mph85%30.14 "Hg15 mi
1:00 AM12 °FClear.12 mph92%30.16 "Hg15 mi
Weather by CustomWeather, © 2015

See weather overviewHow to use our weather pages